Location: Munkebjergskolens Observatorium
(55.3864°N, 10.3987°E)
Time: 04:16:25
(UTC+02:00)

QB50P2 - Pass Details

Date: 04 April 2023
Orbit: 581 x 596 km, 98.0° (Epoch: 31 May)

Event Time Altitude Azimuth Distance (km) Brightness Sun altitude
Rises 03:45:34 0° 13° (NNE) 2,840 ? -22.2°
Reaches altitude 10° 03:47:46 10° 9° (N) 1,931 ? -22.0°
Maximum altitude 03:51:53 60° 291° (WNW) 679 ? -21.6°
Enters shadow 03:52:08 58° 272° (W) 688 ? -21.6°
